This demonstration page uses our WeatherBlox Daily Observations layout. Learn more.

Left ArrowRight Arrow

Hourly Observations for May 12, 2021

Temp ( °F °C ) Dew Point ( °F °C ) Humidity (%) Winds ( mph kmh ) Pressure ( in mb ) Visibility ( mi km ) Precip ( " mm )
12:51 am 00:51 Clear 65 18.3 3 -16.1 8 8 N 6 9 29.83 1010 10 16 N/A
1:51 am 01:51 Clear 63 17.2 3 -16.1 9 9 NE 3 6 29.83 1010 10 16 N/A
2:51 am 02:51 Clear 58 14.4 3 -16.1 11 11 SE 6 9 29.86 1011 10 16 N/A
3:51 am 03:51 Clear 58 14.4 2 -16.7 10 10 ESE 5 7 29.88 1012 10 16 N/A
4:51 am 04:51 Clear 57 13.9 2 -16.7 10 10 SSE 6 9 29.89 1012 10 16 N/A
5:51 am 05:51 Sunny 55 12.8 3 -16.1 12 12 SE 7 11 29.91 1013 10 16 N/A
6:51 am 06:51 Sunny 62 16.7 7 -13.9 11 11 SSE 5 7 29.93 1014 10 16 N/A
7:51 am 07:51 Sunny 70 21.1 9 -12.8 9 9 N N/A 29.95 1014 10 16 N/A
8:51 am 08:51 Sunny 78 25.6 7 -13.9 6 6 E 9 15 29.95 1014 10 16 N/A
9:51 am 09:51 Sunny 81 27.2 10 -12.2 7 7 VRB 3 6 29.95 1014 10 16 N/A
10:51 am 10:51 Sunny 85 29.4 12 -11.1 6 6 VRB 5 7 29.94 1014 10 16 N/A
11:51 am 11:51 Sunny 87 30.6 12 -11.1 6 6 VRB 6 9 29.92 1013 10 16 N/A
12:51 pm 12:51 Sunny 87 30.6 14 -10 6 6 VRB 3 6 29.91 1013 10 16 N/A
1:51 pm 13:51 Sunny 91 32.8 17 -8.3 6 6 N N/A 29.88 1012 10 16 N/A
2:51 pm 14:51 Sunny 92 33.3 18 -7.8 6 6 VRB 5 7 29.86 1011 10 16 N/A
3:51 pm 15:51 Sunny 92 33.3 17 -8.3 6 6 undefined N/A 29.83 1010 10 16 N/A
4:51 pm 16:51 Sunny 92 33.3 17 -8.3 6 6 N N/A 29.82 1010 10 16 N/A
5:51 pm 17:51 Sunny 93 33.9 15 -9.4 6 6 NW 3 6 29.83 1010 10 16 N/A
6:51 pm 18:51 Sunny 89 31.7 15 -9.4 6 6 NW 6 9 29.82 1010 10 16 N/A
7:51 pm 19:51 Clear 81 27.2 14 -10 8 8 NNW 8 13 29.84 1011 10 16 N/A
8:51 pm 20:51 Clear 78 25.6 12 -11.1 8 8 NNW 7 11 29.85 1011 10 16 N/A
9:51 pm 21:51 Clear 74 23.3 10 -12.2 8 8 WNW 8 13 29.87 1012 10 16 N/A
10:51 pm 22:51 Clear 72 22.2 11 -11.7 9 9 WNW 7 11 29.88 1012 10 16 N/A
11:51 pm 23:51 Clear 68 20 10 -12.2 10 10 NNW 7 11 29.89 1012 10 16 N/A

Powered by AerisWeather